This demonstration page uses our WeatherBlox Daily Observations layout. Learn more.

Left ArrowRight Arrow

30.21309, -93.2044

Hourly Observations for May 26, 2015

Temp ( °F °C ) Dew Point ( °F °C ) Humidity (%) Winds ( mph kmh ) Pressure ( in mb ) Visibility ( mi km ) Precip ( " mm )
12:15 am 00:15 Cloudy with Strong Thunderstorms 64 17.9 64 17.5 98 98 NE 3 6 30.12 1020 3 5 0.27 6.86
12:35 am 00:35 Cloudy with Strong Thunderstorms 64 18 64 17.6 98 98 Calm 30.12 1020 4 6 0.39 9.91
12:55 am 00:55 Cloudy with Nearby Thunderstorms 65 18.1 64 17.7 98 98 E 3 6 30.12 1020 5 8 0.45 11.43
1:15 am 01:15 Cloudy with Nearby Thunderstorms 64 18 64 17.7 98 98 E 5 7 30.09 1019 10 16 0.01 0.25
1:35 am 01:35 Cloudy with Light Rain 65 18.1 64 17.9 99 99 SSE 8 13 30.12 1020 10 16 0.03 0.76
1:55 am 01:55 Cloudy with Light Rain 65 18.1 64 17.9 99 99 E 3 6 30.09 1019 7 11 0.06 1.52
2:15 am 02:15 Cloudy with Light Rain 65 18.2 64 17.9 98 98 SSE 5 7 30.12 1020 10 16 0.01 0.25
2:35 am 02:35 Cloudy with Rain 65 18.1 64 17.8 98 98 Calm 30.09 1019 7 11 0.04 1.02
2:55 am 02:55 Mostly Cloudy with Light Rain 65 18.1 64 17.8 98 98 SE 5 7 30.09 1019 10 16 0.06 1.52
3:15 am 03:15 Cloudy with Light Rain 65 18.2 64 17.9 98 98 E 6 9 30.06 1018 10 16 0.01 0.25
3:35 am 03:35 Cloudy with Light Rain 65 18.3 64 18 98 98 E 6 9 30.06 1018 10 16 0.03 0.76
3:55 am 03:55 Cloudy with Light Rain 65 18.2 64 17.8 98 98 ESE 6 9 30.09 1019 10 16 0.04 1.02
4:15 am 04:15 Cloudy with Light Rain 65 18.4 64 18 98 98 SSE 6 9 30.09 1019 10 16 0.00 0.00
4:35 am 04:35 Cloudy with Light Rain 65 18.5 64 18 97 97 S 8 13 30.12 1020 10 16 0.00 0.00
4:55 am 04:55 Cloudy with Light Rain 65 18.4 64 18 98 98 SE 7 11 30.09 1019 10 16 0.01 0.25
5:15 am 05:15 Cloudy 65 18.3 64 17.9 98 98 E 5 7 30.06 1018 10 16 0.00 0.00
6:00 am 06:00 Mostly Cloudy 64 18 64 18 100 100 E 8 13 30.06 1018 10 16 0.00 0.00
6:50 am 06:50 Partly Cloudy 64 18 64 18 100 100 SE 14 22 30.03 1017 10 16 0.00 0.00
7:50 am 07:50 Mostly Cloudy 66 19 64 18 94 94 ESE 13 20 30.03 1017 10 16 0.00 0.00
9:50 am 09:50 Mostly Cloudy 73 23 66 19 78 78 ESE 13 20 30.03 1017 10 16 0.00 0.00
11:50 am 11:50 Mostly Cloudy 79 26 68 20 70 70 Calm 30.06 1018 10 16 0.00 0.00
9:50 pm 21:50 Mostly Cloudy 79 26 73 23 84 84 Calm 30.06 1018 10 16 0.00 0.00
10:15 pm 22:15 Mostly Cloudy 76 24.4 73 22.8 91 91 ESE 6 9 30.06 1018 10 16 0.00 0.00
10:35 pm 22:35 Mostly Cloudy 76 24.5 73 22.7 90 90 ESE 5 7 30.06 1018 10 16 0.00 0.00
10:55 pm 22:55 Mostly Cloudy 76 24.6 73 22.7 89 89 ESE 3 6 30.06 1018 10 16 0.00 0.00
11:15 pm 23:15 Mostly Cloudy 76 24.3 73 22.7 91 91 ESE 3 6 30.06 1018 10 16 0.00 0.00
11:35 pm 23:35 Mostly Cloudy 75 23.8 73 22.7 94 94 SE 6 9 30.06 1018 10 16 0.00 0.00
11:55 pm 23:55 Mostly Cloudy 75 24 73 22.6 92 92 SE 3 6 30.06 1018 10 16 0.00 0.00

Powered by AerisWeather